This is the latest recevied weather packets stored in our database for station/object KC1DMA. If no packets are shown the sender has not sent any weather packets the latest 1 day(s).
| Time | Temp. | Humidity | Pressure | Rain* | Wind** | Luminosity | Snow |
|---|---|---|---|---|---|---|---|
| 1778065513 | 13.89° C | 91% | 1012.4 hPa | - | - | 100 W/m² | - |
| 1778065210 | 13.89° C | 91% | 1012.3 hPa | - | - | 64 W/m² | - |
| 1778064906 | 13.89° C | 91% | 1012.4 hPa | - | - | 70 W/m² | - |
| 1778063999 | 13.33° C | 92% | 1012.5 hPa | - | - | 52 W/m² | - |
| 1778063091 | 13.33° C | 92% | 1012.3 hPa | - | - | 45 W/m² | - |
| 1778062788 | 12.78° C | 92% | 1012.4 hPa | - | - | 31 W/m² | - |
| 1778061880 | 12.78° C | 92% | 1012.3 hPa | - | - | 11 W/m² | - |
| 1778061577 | 12.78° C | 92% | 1012.2 hPa | - | - | 8 W/m² | - |
| 1778061276 | 12.78° C | 92% | 1012.3 hPa | - | - | 6 W/m² | - |
| 1778059763 | 13.33° C | 91% | 1012.3 hPa | - | - | 0 W/m² | - |
| 1778059461 | 13.33° C | 91% | 1012.4 hPa | - | - | 0 W/m² | - |
| 1778059157 | 13.33° C | 91% | 1012.1 hPa | - | - | 0 W/m² | - |
| 1778058250 | 13.33° C | 90% | 1012.3 hPa | - | - | 0 W/m² | - |
| 1778057036 | 13.33° C | 90% | 1012.4 hPa | - | - | 0 W/m² | - |
| 1778056430 | 13.33° C | 89% | 1012.4 hPa | - | - | 0 W/m² | - |
| 1778056127 | 13.33° C | 89% | 1012.3 hPa | - | - | 0 W/m² | - |
| 1778054915 | 13.33° C | 88% | 1012.2 hPa | - | - | 0 W/m² | - |
| 1778054612 | 13.89° C | 88% | 1012.3 hPa | - | - | 0 W/m² | - |
| 1778054310 | 13.89° C | 88% | 1012.5 hPa | - | - | 0 W/m² | - |
| 1778053704 | 13.89° C | 87% | 1012.3 hPa | - | - | 0 W/m² | - |
| 1778052190 | 13.89° C | 86% | 1012.5 hPa | - | - | 0 W/m² | - |
| 1778051586 | 13.89° C | 86% | 1012.3 hPa | - | - | 0 W/m² | - |
| 1778050979 | 13.89° C | 85% | 1012.4 hPa | - | - | 0 W/m² | - |
| 1778050373 | 13.89° C | 85% | 1012.3 hPa | - | - | 0 W/m² | - |
| 1778050070 | 14.44° C | 85% | 1012.5 hPa | - | - | 0 W/m² | - |
* Rain since midnight (hover to see other rain measurements)
** Current wind speed in m/s (hover to see current wind gust speed)